User: anonymous   Login
Location: Unspecified
(0.0000°N, 0.0000°E)
Time: 18:06:04
(UTC+02:00)
Language:

Cosmos 1892 Rocket - Orbit

View from above orbital plane
View from above orbital plane
View from above satellite
View from above satellite

Ground track
Ground track

The orbit data is extracted from the following two-line orbital elements,

1 18422U 87088B   14297.13036841  .00000645  00000-0  77241-4 0  3890
2 18422 082.5133 002.8496 0020047 028.3785 354.9900 14.82478364458516
Epoch (UTC): 24 October 2014 03:07:43
Eccentricity: 0.0020047
inclination: 82.5133°
perigee height: 607 km
apogee height: 635 km
right ascension of ascending node: 2.8496°
argument of perigee: 28.3785°
revolutions per day: 14.82478364
mean anomaly at epoch: 354.9900°
orbit number at epoch: 45851

The dashed part of the orbit path shows where the satellite is in the earth's shadow,  

DLR